This demonstration page uses our WeatherBlox Daily Observations layout. Learn more.

41.55636, -103.73856

Hourly Observations for December 31, 2015

Temp ( °F °C ) Dew Point ( °F °C ) Humidity (%) Winds ( mph kmh ) Pressure ( in mb ) Visibility ( mi km ) Precip ( " mm )
12:53 am 00:53 Clear -3 -19.4 -6 -21.1 86 86 NW 7 11 30.45 1031 8 12.87472 0 0
1:53 am 01:53 Clear -1 -18.3 -5 -20.6 82 82 NW 9 15 30.44 1031 8 12.87472 0 0
2:53 am 02:53 Partly Cloudy 2 -16.7 -2 -18.9 83 83 NNW 7 11 30.45 1031 9 14.48406 0 0
3:53 am 03:53 Clear 3 -16.1 -1 -18.3 83 83 NNW 10 17 30.46 1032 10 16.0934 0 0
4:53 am 04:53 Clear 2 -16.7 -2 -18.9 83 83 NNW 9 15 30.48 1032 10 16.0934 0 0
5:53 am 05:53 Clear 4 -15.6 -1 -18.3 80 80 NNW 13 20 30.5 1033 10 16.0934 0 0
6:53 am 06:53 Clear 4 -15.6 -1 -18.3 80 80 NW 9 15 30.54 1034 10 16.0934 0 0
7:53 am 07:53 Sunny 4 -15.6 -1 -18.3 80 80 NW 9 15 30.54 1034 10 16.0934 0 0
8:53 am 08:53 Sunny 8 -13.3 3 -16.1 80 80 WNW 13 20 30.57 1035 10 16.0934 0 0
9:53 am 09:53 Sunny 15 -9.4 7 -13.9 70 70 WNW 10 17 30.58 1036 10 16.0934 0 0
10:53 am 10:53 Sunny 19 -7.2 10 -12.2 68 68 WNW 14 22 30.57 1035 10 16.0934 0 0
11:53 am 11:53 Sunny 24 -4.4 13 -10.6 62 62 WNW 21 33 30.53 1034 10 16.0934 0 0
12:53 pm 12:53 Sunny 26 -3.3 14 -10 60 60 NW 23 37 30.54 1034 10 16.0934 0 0
1:53 pm 13:53 Mostly Sunny 27 -2.8 13 -10.6 55 55 NW 20 31 30.53 1034 10 16.0934 0 0
2:53 pm 14:53 Sunny 26 -3.3 12 -11.1 55 55 WNW 20 31 30.54 1034 10 16.0934 0 0
3:53 pm 15:53 Sunny 25 -3.9 10 -12.2 53 53 WNW 14 22 30.55 1035 10 16.0934 0 0
4:53 pm 16:53 Clear 19 -7.2 9 -12.8 65 65 NW 8 13 30.59 1036 10 16.0934 0 0
5:53 pm 17:53 Cloudy 20 -6.7 10 -12.2 65 65 WNW 12 19 30.6 1036 10 16.0934 0 0
6:53 pm 18:53 Mostly Cloudy 19 -7.2 9 -12.8 65 65 WNW 10 17 30.61 1037 10 16.0934 0 0
7:53 pm 19:53 Clear 15 -9.4 6 -14.4 67 67 WNW 7 11 30.63 1037 10 16.0934 0 0
8:53 pm 20:53 Clear 13 -10.6 4 -15.6 67 67 NW 7 11 30.63 1037 10 16.0934 0 0
9:53 pm 21:53 Clear 7 -13.9 1 -17.2 76 76 NW 9 15 30.63 1037 10 16.0934 0 0
10:53 pm 22:53 Clear 7 -13.9 1 -17.2 76 76 NW 7 11 30.62 1037 10 16.0934 0 0
11:53 pm 23:53 Clear 5 -15 -1 -18.3 76 76 NW 9 15 30.6 1036 10 16.0934 0 0

Powered by AerisWeather